Flagstaff, AZ

12:44 AM MST on May 29, 2017 (GMT -0700)
Flagstaff Pulliam

Weather History for KFLG - March, 2012

Change the Weather History Date:

Monday, March 5, 2012

  Actual Average Record
Temperature  
Mean Temperature 40 °F 35 °F  
Max Temperature 61 °F 48 °F 68 °F (1910)
Min Temperature 18 °F 22 °F -5 °F (1948)
Degree Days  
Heating Degree Days 25 30  
Month to date heating degree days 158 151  
Since 1 July heating degree days 4848 4990  
Cooling Degree Days 0 0  
Month to date cooling degree days 0 0  
Year to date cooling degree days 0 0  
Moisture  
Dew Point 14 °F    
Average Humidity 46    
Maximum Humidity 80    
Minimum Humidity 12    
Precipitation  
Precipitation 0.00 in 0.08 in 0.77 in (1907)
Month to date precipitation 0.00 0.39  
Year to date precipitation 1.41 4.60  
Snow  
Snow 0.00 in 0.70 in 7.00 in (2004)
Month to date snowfall 0.0 3.7  
Since 1 July snowfall 66.1 76.9  
Snow Depth 0.00 in    
Sea Level Pressure  
Sea Level Pressure 30.14 in    
Wind  
Wind Speed 4 mph (SSW)    
Max Wind Speed 16 mph    
Max Gust Speed 21 mph    
Visibility 10 miles    
Events      
T = Trace of Precipitation, MM = Missing Value Source: NWS Daily Summary

Daily Weather History Graph

Daily Weather History Graph

Search for Another Location

Airport or City:

Trip Planner

Search our weather history database for the weather conditions in past years. The results will help you decide how hot, cold, wet, or windy it might be!

Date:

Astronomy

Mar. 05, 2012 Rise Set
Actual Time 6:50 AM MST 6:26 PM MST
Civil Twilight 6:24 AM MST 6:51 PM MST
Nautical Twilight 5:55 AM MST 7:21 PM MST
Astronomical Twilight 5:26 AM MST 7:50 PM MST
Moon 3:53 PM MST (3/5) 4:46 AM MST (3/5)
Length of Visible Light 12h 26m
Length of Day
11h 36m
Waxing Gibbous, 91% of the Moon is Illuminated
Mar 5
Waxing Gibbous
Mar 8
Full
Mar 14
Last Quarter
Mar 22
New
Mar 30
First Quarter

Hourly Weather History & Observations

Time (MST) Temp. Windchill Dew Point Humidity Pressure Visibility Wind Dir Wind Speed Gust Speed Precip Events Conditions
12:57 AM 23.0 °F - 15.1 °F 72% 30.22 in 10.0 mi Calm Calm - N/A   Clear
1:57 AM 21.9 °F - 15.1 °F 75% 30.21 in 10.0 mi Calm Calm - N/A   Clear
2:57 AM 21.9 °F - 15.1 °F 75% 30.18 in 10.0 mi Calm Calm - N/A   Clear
3:57 AM 19.9 °F - 14.0 °F 78% 30.18 in 10.0 mi Calm Calm - N/A   Clear
4:57 AM 19.0 °F - 12.9 °F 77% 30.19 in 10.0 mi Calm Calm - N/A   Clear
5:57 AM 19.0 °F - 12.9 °F 77% 30.22 in 10.0 mi Calm Calm - N/A   Clear
6:57 AM 18.0 °F - 12.9 °F 81% 30.27 in 10.0 mi Calm Calm - N/A   Clear
7:57 AM 27.0 °F - 18.0 °F 69% 30.26 in 10.0 mi Calm Calm - N/A   Clear
8:57 AM 42.1 °F - 21.0 °F 43% 30.22 in 10.0 mi Calm Calm - N/A   Clear
9:57 AM 53.1 °F - 10.0 °F 18% 30.18 in 10.0 mi SW 4.6 mph - N/A   Clear
10:57 AM 55.9 °F - 10.9 °F 17% 30.16 in 10.0 mi SSW 8.1 mph - N/A   Clear
11:57 AM 59.0 °F - 10.9 °F 15% 30.13 in 10.0 mi SW 10.4 mph - N/A   Clear
12:57 PM 60.1 °F - 14.0 °F 16% 30.12 in 10.0 mi SSW 11.5 mph - N/A   Clear
1:57 PM 61.0 °F - 12.0 °F 15% 30.08 in 10.0 mi South 11.5 mph 19.6 mph N/A   Clear
2:57 PM 59.0 °F - 10.0 °F 14% 30.08 in 10.0 mi SSW 13.8 mph - N/A   Clear
3:57 PM 59.0 °F - 6.1 °F 12% 30.08 in 10.0 mi SSW 13.8 mph - N/A   Clear
4:57 PM 55.0 °F - 14.0 °F 20% 30.10 in 10.0 mi SW 13.8 mph - N/A   Clear
5:57 PM 51.1 °F - 16.0 °F 25% 30.12 in 10.0 mi SW 10.4 mph - N/A   Clear
6:57 PM 46.0 °F 42.5 °F 17.1 °F 31% 30.15 in 10.0 mi SW 6.9 mph - N/A   Clear
7:57 PM 41.0 °F - 18.0 °F 40% 30.12 in 10.0 mi Calm Calm - N/A   Clear
8:57 PM 37.0 °F - 15.1 °F 41% 30.06 in 10.0 mi Calm Calm - N/A   Clear
9:57 PM 35.1 °F - 16.0 °F 46% 30.02 in 10.0 mi Calm Calm - N/A   Clear
10:57 PM 33.1 °F - 16.0 °F 50% 30.00 in 10.0 mi Calm Calm - N/A   Clear
11:57 PM 30.9 °F - 17.1 °F 57% 29.98 in 10.0 mi Calm Calm - N/A   Clear